(189167) = 2002 TU264 = 1999 VK111

Discovered at Socorro on 2002-10-10 by LINEAR.

Orbit

Orbit type: Main Belt

Note: WebGL enabled browser required.

epoch2023-09-13.0
epoch JD2460200.5
perihelion date2021-01-13.88248
perihelion JD2459228.38248
argument of perihelion (°)78.99329
ascending node (°)233.95577
inclination (°)5.52624
eccentricity0.1533107
perihelion distance (AU)1.8162491
Tisserand w.r.t. Jupiter3.7
ΔV w.r.t. Earth (km/sec)8.4
semimajor axis (AU)2.1451188
mean anomaly (°)304.96190
mean daily motion (°/day)0.31370890
aphelion distance (AU)2.474
period (years)3.14
P-vector [x]0.67765888
P-vector [y]-0.70669893
P-vector [z]-0.20335944
Q-vector [x]0.73124233
Q-vector [y]0.61828978
Q-vector [z]0.28810136
absolute magnitude17.11
phase slope0.15
uncertainty0
referenceMPO 778270
observations used513
oppositions15
arc length (days)9153
first opposition used1998
last opposition used2023
residual rms (arc-secs)0.82
perturbers coarse indicatorM-v
perturbers precise indicator003Ek
first observation date used1998-04-22.0
last observation date used2023-05-14.0
computer nameMPCLINUX
JD of orbit computation2455842.601241
perihelion JD uncertainty (days)1.2893E-04
argument of perihelion uncertainty (°)9.1690E-05
ascending node uncertainty (°)7.1945E-05
inclination uncertainty (°)7.8838E-06
eccentricity uncertainty 7.4291E-08
perihelion distance uncertainty (AU)1.6512E-07
Minimum Orbit Intersection Distances (in AU)
for orbit epoch: 2460200.5, reference: E2023-VP5
Mercury1.39251
Venus1.10034
Earth0.81157
Mars0.44507
Jupiter2.76919
Saturn6.64964
Uranus16.0296
Neptune27.6693

Observations

527 total observations over interval: 1998 04 22.24743 – 2023 05 14.292299
These data are available for download (format description).

Date (UT) J2000 RA J2000 Dec Magn Location Ref
1998 04 22.24743 13 44 29.16 -15 12 40.3 19.4   704 – Lincoln Laboratory ETS, New Mexico MPS 213081
1998 04 22.26630 13 44 27.93 -15 12 31.1 19.3   704 – Lincoln Laboratory ETS, New Mexico MPS 213081
1998 04 22.28510 13 44 26.84 -15 12 21.7 19.3   704 – Lincoln Laboratory ETS, New Mexico MPS 213081
1998 04 22.30394 13 44 25.62 -15 12 12.7 19.2   704 – Lincoln Laboratory ETS, New Mexico MPS 213081
1998 04 22.32310 13 44 24.06 -15 12 03.4 19.3   704 – Lincoln Laboratory ETS, New Mexico MPS 213081
1998 04 24.26296 13 42 26.52 -14 54 57.7 19.4 V 691 – Steward Observatory, Kitt Peak-Spacewatch MPS 142620
1998 04 24.28478 13 42 25.13 -14 54 46.0 19.6 V 691 – Steward Observatory, Kitt Peak-Spacewatch MPS 142620
1998 04 24.30670 13 42 23.72 -14 54 34.2 19.2 V 691 – Steward Observatory, Kitt Peak-Spacewatch MPS 142620
1999 11 09.42970 04 57 21.59 +21 12 40.8 19.3   704 – Lincoln Laboratory ETS, New Mexico MPS 8780
1999 11 09.44409 04 57 20.72 +21 12 35.7 19.4   704 – Lincoln Laboratory ETS, New Mexico MPS 8780
1999 11 09.45847 04 57 19.92 +21 12 32.3 20.2   704 – Lincoln Laboratory ETS, New Mexico MPS 8780
1999 11 09.47286 04 57 19.18 +21 12 26.9 19.7   704 – Lincoln Laboratory ETS, New Mexico MPS 8780
1999 11 09.48723 04 57 18.38 +21 12 23.6 20.1   704 – Lincoln Laboratory ETS, New Mexico MPS 8780
1999 11 12.38069 04 54 39.11 +20 58 59.9 20.1   704 – Lincoln Laboratory ETS, New Mexico MPS 8780
1999 11 12.39498 04 54 38.25 +20 58 56.0 19.6   704 – Lincoln Laboratory ETS, New Mexico MPS 8780
1999 11 12.42356 04 54 36.55 +20 58 48.0 20.1   704 – Lincoln Laboratory ETS, New Mexico MPS 8780
2000 01 10.09937 04 01 54.89 +16 56 37.5 19.8 V 691 – Steward Observatory, Kitt Peak-Spacewatch MPS 110693
2000 01 10.12155 04 01 54.57 +16 56 36.0 20.7 V 691 – Steward Observatory, Kitt Peak-Spacewatch MPS 110693
2000 01 10.14351 04 01 54.30 +16 56 34.3 20.7 V 691 – Steward Observatory, Kitt Peak-Spacewatch MPS 110693
2001 03 21.43404 12 31 15.23 -11 06 00.6 21.2   608 – Haleakala-AMOS MPS 142620
2001 03 21.44488 12 31 14.58 -11 05 56.3 20.8   608 – Haleakala-AMOS MPS 142620
2001 03 21.45544 12 31 13.94 -11 05 51.8 20.8   608 – Haleakala-AMOS MPS 142620
2002 10 10.34497 03 28 04.87 +21 41 58.7 20.0   704 – Lincoln Laboratory ETS, New Mexico MPS 64231
2002 10 10.37665 03 28 03.73 +21 41 50.5 19.8   704 – Lincoln Laboratory ETS, New Mexico MPS 64231
2002 10 10.39243 03 28 03.23 +21 41 46.1 20.0   704 – Lincoln Laboratory ETS, New Mexico MPS 64231
2002 10 11.35919 03 27 31.67 +21 37 32.1 20.2   704 – Lincoln Laboratory ETS, New Mexico MPS 64231
2002 10 11.37504 03 27 31.09 +21 37 27.5 19.6   704 – Lincoln Laboratory ETS, New Mexico MPS 64231
2002 10 11.39092 03 27 30.50 +21 37 23.2 19.8   704 – Lincoln Laboratory ETS, New Mexico MPS 64231
2002 11 05.22820 03 05 06.43 +18 55 38.0 19.1   704 – Lincoln Laboratory ETS, New Mexico MPS 66218
2002 11 05.24531 03 05 05.21 +18 55 29.2 19.1   704 – Lincoln Laboratory ETS, New Mexico MPS 66218
2002 11 05.26249 03 05 04.08 +18 55 21.0 19.4   704 – Lincoln Laboratory ETS, New Mexico MPS 66218
2002 11 05.28000 03 05 02.86 +18 55 13.0 19.4   704 – Lincoln Laboratory ETS, New Mexico MPS 66218
2002 11 05.29734 03 05 01.68 +18 55 04.0 19.6   704 – Lincoln Laboratory ETS, New Mexico MPS 66218
2002 11 06.24285 03 03 58.95 +18 47 27.3 19.4   704 – Lincoln Laboratory ETS, New Mexico MPS 66218
2002 11 06.24776 03 03 58.66 +18 47 24.6 19.2   704 – Lincoln Laboratory ETS, New Mexico MPS 66218
2002 11 06.25949 03 03 57.85 +18 47 19.1 19.0   704 – Lincoln Laboratory ETS, New Mexico MPS 66218
2002 11 06.26442 03 03 57.50 +18 47 16.4 19.7   704 – Lincoln Laboratory ETS, New Mexico MPS 66218
2002 11 06.27616 03 03 56.74 +18 47 10.6 19.1   704 – Lincoln Laboratory ETS, New Mexico MPS 66218
2002 11 06.28109 03 03 56.37 +18 47 08.4 19.6   704 – Lincoln Laboratory ETS, New Mexico MPS 66218
2002 11 06.29284 03 03 55.55 +18 47 02.6 19.4   704 – Lincoln Laboratory ETS, New Mexico MPS 66218
2002 11 06.29776 03 03 55.22 +18 47 00.3 19.4   704 – Lincoln Laboratory ETS, New Mexico MPS 66218
2002 11 06.30954 03 03 54.31 +18 46 54.7 19.3   704 – Lincoln Laboratory ETS, New Mexico MPS 66218
2002 11 13.15872 02 56 24.29 +17 50 50.5 18.9 R 735 – George Observatory, Needville MPS 66218
2002 11 13.16933 02 56 23.68 +17 50 45.9 18.8 R 735 – George Observatory, Needville MPS 66218
2002 11 13.26049 02 56 17.54 +17 50 01.8 18.8 R 735 – George Observatory, Needville MPS 66218
2002 11 14.25180 02 55 14.30 +17 41 53.9 18.9   704 – Lincoln Laboratory ETS, New Mexico MPS 66218
2002 11 14.26995 02 55 13.17 +17 41 45.8 19.4   704 – Lincoln Laboratory ETS, New Mexico MPS 66218
2002 11 14.28780 02 55 11.96 +17 41 36.5 19.6   704 – Lincoln Laboratory ETS, New Mexico MPS 66218
2002 11 14.30573 02 55 10.72 +17 41 27.3 19.4   704 – Lincoln Laboratory ETS, New Mexico MPS 66218
2002 11 14.32367 02 55 09.59 +17 41 19.5 19.1   704 – Lincoln Laboratory ETS, New Mexico MPS 66218
2002 12 09.08114 02 35 56.39 +14 51 27.9 20.9 V 291 – LPL/Spacewatch II MPS 68109
2002 12 09.10515 02 35 55.78 +14 51 21.2 20.8 V 291 – LPL/Spacewatch II MPS 68109
2002 12 09.12896 02 35 55.16 +14 51 14.5 20.9 V 291 – LPL/Spacewatch II MPS 68109
2005 09 18.31360 01 30 02.97 +17 10 22.5 19.0 R 644 – Palomar Mountain/NEAT MPS 143848
2005 09 18.33472 01 30 02.17 +17 10 16.8 19.2 R 644 – Palomar Mountain/NEAT MPS 143848
2005 09 18.35893 01 30 01.23 +17 10 10.2 19.5 R 644 – Palomar Mountain/NEAT MPS 143848
2005 09 23.38293 01 26 41.42 +16 43 33.9 19.0 V 703 – Catalina Sky Survey MPS 142215
2005 09 23.39043 01 26 41.06 +16 43 31.9 18.8 V 703 – Catalina Sky Survey MPS 142215
2005 09 23.39791 01 26 40.77 +16 43 29.5 19.2 V 703 – Catalina Sky Survey MPS 142215
2005 09 23.40543 01 26 40.38 +16 43 26.3 19.1 V 703 – Catalina Sky Survey MPS 142215
2005 09 25.29407 01 25 15.16 +16 31 35.2 19.3 V 691 – Steward Observatory, Kitt Peak-Spacewatch MPS 142620
2005 09 25.31148 01 25 14.29 +16 31 28.3 19.3 V 691 – Steward Observatory, Kitt Peak-Spacewatch MPS 142620
2005 09 25.32882 01 25 13.42 +16 31 21.6 19.3 V 691 – Steward Observatory, Kitt Peak-Spacewatch MPS 142620
2005 09 30.30312 01 21 05.16 +15 55 37.8 19.2 V 691 – Steward Observatory, Kitt Peak-Spacewatch MPS 142620
2005 09 30.32395 01 21 03.98 +15 55 28.5 19.3 V 691 – Steward Observatory, Kitt Peak-Spacewatch MPS 142620
2005 09 30.34133 01 21 03.00 +15 55 20.3 19.2 V 691 – Steward Observatory, Kitt Peak-Spacewatch MPS 142620
2005 10 01.33302 01 20 10.21 +15 47 29.0 18.8 V 703 – Catalina Sky Survey MPS 143848
2005 10 01.34221 01 20 09.74 +15 47 24.5 18.6 V 703 – Catalina Sky Survey MPS 143848
2005 10 01.35141 01 20 09.24 +15 47 20.2 18.8 V 703 – Catalina Sky Survey MPS 143848
2005 10 01.36059 01 20 08.66 +15 47 16.2 18.6 V 703 – Catalina Sky Survey MPS 143848
2005 10 03.27050 01 18 24.88 +15 31 32.9 19.6   704 – Lincoln Laboratory ETS, New Mexico MPS 143848
2005 10 03.28165 01 18 24.24 +15 31 26.6 19.7   704 – Lincoln Laboratory ETS, New Mexico MPS 143848
2005 10 03.29242 01 18 23.56 +15 31 22.0 19.9   704 – Lincoln Laboratory ETS, New Mexico MPS 143848
2005 10 03.30322 01 18 23.02 +15 31 15.7 19.7   704 – Lincoln Laboratory ETS, New Mexico MPS 143848
2005 10 06.28535 01 15 35.90 +15 05 10.1 18.4 R 699 – Lowell Observatory-LONEOS MPS 143848
2005 10 06.29361 01 15 35.31 +15 05 07.3 19.2 V 691 – Steward Observatory, Kitt Peak-Spacewatch MPS 143848
2005 10 06.30729 01 15 34.47 +15 04 59.6   699 – Lowell Observatory-LONEOS MPS 143848
2005 10 06.31096 01 15 34.28 +15 04 58.3 19.1 V 691 – Steward Observatory, Kitt Peak-Spacewatch MPS 143848
2005 10 06.32831 01 15 33.23 +15 04 48.5 19.2 V 691 – Steward Observatory, Kitt Peak-Spacewatch MPS 143848
2005 10 06.32923 01 15 33.13 +15 04 47.4   699 – Lowell Observatory-LONEOS MPS 143848
2005 10 08.25491 01 13 43.41 +14 47 08.1 19.0   704 – Lincoln Laboratory ETS, New Mexico MPS 143848
2005 10 08.26595 01 13 42.72 +14 47 02.3 19.4   704 – Lincoln Laboratory ETS, New Mexico MPS 143848
2005 10 08.27678 01 13 42.07 +14 46 57.4 19.0   704 – Lincoln Laboratory ETS, New Mexico MPS 143848
2005 10 08.27969 01 13 42.02 +14 46 53.1 18.6 V 703 – Catalina Sky Survey MPS 143848
2005 10 08.28670 01 13 41.59 +14 46 50.0 18.6 V 703 – Catalina Sky Survey MPS 143848
